Charleston, SC

11:26 PM EDT on July 24, 2017 (GMT -0400)
Charleston Air Force Base-International

Weather History for KCHS - October, 2010

Change the Weather History Date:

Friday, October 22, 2010

  Actual Average Record
Temperature  
Mean Temperature 63 °F 65 °F  
Max Temperature 77 °F 76 °F 87 °F (1939)
Min Temperature 49 °F 55 °F 33 °F (1974)
Degree Days  
Heating Degree Days 2 3  
Month to date heating degree days 19 34  
Since 1 July heating degree days 19 37  
Cooling Degree Days 0 3  
Month to date cooling degree days 88 105  
Year to date cooling degree days 2632 2243  
Growing Degree Days 13 (Base 50)    
Moisture  
Dew Point 47 °F    
Average Humidity 61    
Maximum Humidity 89    
Minimum Humidity 33    
Precipitation  
Precipitation 0.00 in 0.11 in 0.90 in (2006)
Month to date precipitation T 2.91  
Year to date precipitation 53.96 44.65  
Snow  
Snow 0.00 in 0.00 in - ()
Month to date snowfall 0.0  
Since 1 July snowfall 0.0 0.0  
Since 1 September snowfall 0.0 0.0  
Snow Depth 0.00 in    
Sea Level Pressure  
Sea Level Pressure 30.09 in    
Wind  
Wind Speed 5 mph (North)    
Max Wind Speed 16 mph    
Max Gust Speed 22 mph    
Visibility 10 miles    
Events      
T = Trace of Precipitation, MM = Missing Value Source: NWS Daily Summary

Daily Weather History Graph

Daily Weather History Graph

Search for Another Location

Airport or City:

Trip Planner

Search our weather history database for the weather conditions in past years. The results will help you decide how hot, cold, wet, or windy it might be!

Date:

Astronomy

Oct. 22, 2010 Rise Set
Actual Time 7:29 AM EDT 6:39 PM EDT
Civil Twilight 7:04 AM EDT 7:04 PM EDT
Nautical Twilight 6:35 AM EDT 7:32 PM EDT
Astronomical Twilight 6:07 AM EDT 8:01 PM EDT
Moon 6:11 PM EDT (10/22) 7:04 AM EDT (10/22)
Length of Visible Light 11h 59m
Length of Day
11h 09m
Full, 100% of the Moon is Illuminated
Oct 22
Full
Oct 22
Full
Oct 30
Last Quarter
Nov 6
New
Nov 13
First Quarter

Hourly Weather History & Observations

Time (EDT) Temp. Dew Point Humidity Pressure Visibility Wind Dir Wind Speed Gust Speed Precip Events Conditions
12:56 AM 63.0 °F 48.0 °F 58% 29.95 in 10.0 mi West 6.9 mph - N/A   Clear
1:56 AM 63.0 °F 48.0 °F 58% 29.95 in 10.0 mi West 6.9 mph - N/A   Clear
2:56 AM 60.1 °F 48.0 °F 64% 29.96 in 10.0 mi WSW 6.9 mph - N/A   Clear
3:56 AM 57.0 °F 48.0 °F 72% 29.97 in 10.0 mi West 3.5 mph - N/A   Clear
4:56 AM 57.0 °F 48.0 °F 72% 29.99 in 10.0 mi NW 5.8 mph - N/A   Clear
5:56 AM 55.0 °F 48.0 °F 77% 30.01 in 10.0 mi WNW 3.5 mph - N/A   Clear
6:56 AM 51.1 °F 46.9 °F 86% 30.03 in 10.0 mi NW 4.6 mph - N/A   Clear
7:56 AM 51.1 °F 48.0 °F 89% 30.05 in 10.0 mi NNW 6.9 mph - N/A   Clear
8:56 AM 59.0 °F 48.9 °F 69% 30.08 in 10.0 mi North 6.9 mph - N/A   Clear
9:56 AM 66.0 °F 46.9 °F 50% 30.11 in 10.0 mi NE 10.4 mph - N/A   Clear
10:56 AM 71.1 °F 44.1 °F 38% 30.12 in 10.0 mi ENE 12.7 mph 19.6 mph N/A   Clear
11:56 AM 73.0 °F 45.0 °F 37% 30.14 in 10.0 mi NNE 12.7 mph - N/A   Clear
12:56 PM 73.9 °F 44.1 °F 34% 30.13 in 10.0 mi NNE 10.4 mph - N/A   Clear
1:56 PM 75.9 °F 46.0 °F 35% 30.11 in 10.0 mi North 10.4 mph - N/A   Clear
2:56 PM 75.9 °F 46.0 °F 35% 30.11 in 10.0 mi Variable 5.8 mph - N/A   Clear
3:56 PM 75.0 °F 45.0 °F 34% 30.10 in 10.0 mi Calm Calm - N/A   Clear
4:56 PM 75.0 °F 45.0 °F 34% 30.11 in 10.0 mi ENE 4.6 mph - N/A   Clear
5:56 PM 72.0 °F 46.0 °F 40% 30.12 in 10.0 mi NE 5.8 mph - N/A   Clear
6:56 PM 66.9 °F 48.0 °F 51% 30.13 in 10.0 mi NNE 4.6 mph - N/A   Clear
7:56 PM 64.9 °F 48.9 °F 56% 30.16 in 10.0 mi Calm Calm - N/A   Clear
8:56 PM 57.0 °F 50.0 °F 77% 30.17 in 8.0 mi Calm Calm - N/A   Clear
9:56 PM 57.9 °F 51.1 °F 78% 30.20 in 10.0 mi Calm Calm - N/A   Clear
10:56 PM 54.0 °F 50.0 °F 86% 30.22 in 10.0 mi NE 3.5 mph - N/A   Clear
11:56 PM 55.9 °F 50.0 °F 80% 30.23 in 10.0 mi Calm Calm - N/A   Clear